Wind_Speed
17 17 16 16 16 17 17 17 18 18 18 19 20 20 20 21 21 22 24 25 26 27 28 28 29 28 29 29 29 28 28 29 29 29 29 29 30 30 30 30 29 29 29
17 17 16 16 16 17 17 18 18 18 19 20 21 21 20 20 21 22 23 24 24 26 27 27 27 28 28 29 29 29 29 29 30 29 29 29 30 30 31 31 30 30 29
16 16 17 18 17 17 17 17 18 18 19 20 20 21 21 21 22 23 23 24 25 26 27 27 28 28 29 29 29 29 29 30 30 30 30 30 29 30 31 31 31 30 30
15 17 17 18 19 20 19 19 19 19 20 20 21 22 22 23 23 24 24 25 26 26 26 27 28 28 29 29 30 29 29 29 29 30 31 31 30 30 31 31 32 31 30
17 17 18 18 19 20 21 21 21 21 21 22 22 23 24 24 24 25 26 26 26 27 27 28 28 28 28 28 28 29 28 29 29 30 30 30 30 31 30 31 31 31 31
16 16 17 19 19 20 21 22 22 22 22 23 23 24 25 25 25 26 26 27 27 27 28 28 28 28 28 28 28 28 28 28 28 29 29 30 30 30 30 30 30 31 31
15 16 16 18 19 20 21 22 23 23 24 24 24 25 26 26 26 26 27 28 27 27 28 28 28 28 28 28 29 28 28 28 28 29 30 30 30 29 29 29 29 29 29
15 16 17 18 20 21 21 22 23 24 24 25 26 26 27 27 28 28 28 28 28 28 28 28 28 29 29 29 29 29 29 28 28 28 29 29 29 29 29 28 28 29 29
16 17 19 20 21 21 21 22 23 24 25 25 26 27 28 29 29 29 29 28 28 28 28 28 28 28 28 28 28 28 29 29 28 28 28 29 29 29 29 29 29 29 29
18 19 20 22 22 21 22 23 24 25 25 26 26 27 28 28 29 28 28 28 27 27 27 27 28 28 28 28 28 28 28 28 28 28 28 28 29 29 29 29 29 29 29
19 20 21 22 21 22 22 23 24 24 25 26 26 26 27 27 28 27 27 27 27 27 27 27 26 26 26 26 26 27 27 26 26 26 26 27 27 28 29 29 29 29 29
20 20 21 22 23 23 24 24 24 25 25 25 25 26 26 27 27 26 26 26 26 26 26 25 25 25 25 25 25 26 25 25 25 26 26 26 27 27 28 28 28 29 29
21 22 22 22 22 23 24 24 24 25 25 25 25 25 25 26 25 25 25 25 24 25 25 24 24 24 24 25 25 25 24 24 24 25 25 25 26 26 26 27 28 29 29
20 21 22 22 22 22 23 24 24 24 24 25 25 25 24 24 24 23 23 23 23 23 23 23 23 23 23 24 24 24 24 24 24 24 24 24 25 25 25 26 26 27 28
21 21 22 22 23 23 22 22 23 23 24 25 24 23 23 22 22 22 22 21 22 22 23 22 22 22 22 22 22 22 22 22 23 23 23 23 23 23 23 23 23 24 25
20 21 22 22 23 22 22 22 22 23 23 22 21 21 21 21 21 21 21 21 21 21 21 20 20 20 20 20 20 20 21 21 21 20 20 20 20 19 20 20 20 20 21
20 20 20 20 20 20 20 20 20 20 20 19 19 20 19 19 19 19 19 19 20 20 19 19 19 18 18 18 18 18 19 19 18 18 18 17 17 17 17 17 17 17 18
17 18 19 19 19 19 19 18 18 17 17 17 17 17 17 17 17 17 16 16 16 16 16 16 16 16 16 16 15 16 16 16 16 15 14 14 14 14 14 14 14 14 14
16 17 17 17 17 17 16 16 16 15 15 15 15 15 16 16 15 15 14 14 14 14 14 14 13 13 13 13 13 13 13 12 12 11 11 10 10 10 10 10 11 11 11
15 16 16 15 15 14 14 14 14 14 14 15 15 15 15 14 13 13 13 13 13 13 13 11 11 10 9 9 9 8 8 7 6 6 6 6 5 6 6 6 7 7 7
13 13 14 14 13 13 13 12 12 12 13 13 13 13 12 12 12 12 12 12 12 11 10 9 8 7 6 5 5 5 4 4 3 2 2 2 2 2 2 3 3 4 5
11 12 12 13 12 12 12 11 10 11 11 11 11 11 11 11 11 11 11 11 10 8 7 6 5 4 4 3 4 4 4 4 4 4 4 3 2 3 3 3 3 3 3
11 11 11 12 12 11 11 10 9 9 10 9 9 10 10 10 10 10 10 9 8 7 6 5 5 4 4 4 5 5 6 6 6 6 7 7 7 7 6 6 5 5 4
9 10 10 10 11 10 10 10 9 9 9 9 9 10 10 10 10 10 9 9 8 8 8 7 7 7 6 6 7 7 8 8 8 8 8 9 9 9 9 8 7 7 6
9 9 9 9 10 9 9 9 9 8 8 8 9 10 10 11 11 11 11 10 10 9 10 10 10 10 10 10 10 10 10 10 11 11 12 12 11 11 10 10 10 9 9
8 8 9 9 9 9 8 8 8 8 8 8 9 9 10 10 11 11 11 11 11 11 11 11 12 12 12 12 12 12 12 13 13 14 14 14 13 13 13 13 12 11 10
Wind_Direction
275 279 281 283 283 283 282 281 281 280 279 280 279 278 277 276 276 275 275 276 275 274 274 274 273 273 274 275 274 274 274 273 272 270 268 266 265 263 263 262 260 259 258
276 283 284 280 281 283 283 282 282 280 278 279 280 280 280 279 278 279 278 279 278 277 277 276 276 274 275 274 273 275 276 274 273 271 270 267 266 265 263 261 259 260 259
279 283 285 282 280 281 282 281 281 282 281 280 280 280 281 281 282 282 281 281 281 280 278 277 276 275 274 275 274 275 275 273 272 270 270 268 267 265 263 262 259 259 259
278 280 283 284 280 279 280 280 282 285 285 284 283 283 283 283 283 283 283 283 283 282 280 278 277 276 275 274 274 273 273 272 270 269 268 266 265 264 263 262 260 258 257
279 281 283 284 285 283 280 280 281 284 284 283 283 282 282 283 283 284 283 283 283 283 281 279 278 276 275 274 274 274 273 272 269 268 267 265 264 262 262 260 258 257 256
283 283 285 285 286 285 283 281 281 282 283 284 284 283 283 284 284 285 285 284 284 283 281 280 279 277 276 275 275 275 274 273 271 268 266 265 264 263 262 260 258 257 255
286 286 289 289 287 285 284 283 282 282 283 284 285 285 285 286 286 286 286 285 284 282 281 279 278 277 276 275 275 274 273 272 272 270 267 265 264 264 263 261 259 257 256
288 290 291 292 290 287 287 286 285 286 285 286 287 287 288 288 288 287 286 285 284 282 280 279 277 276 276 275 274 273 273 272 271 271 268 265 264 263 262 261 259 258 257
288 289 293 293 291 290 288 286 285 285 286 287 288 288 288 288 288 287 287 286 284 283 281 279 278 277 276 275 274 274 273 272 271 270 269 267 264 264 262 260 258 258 257
289 288 290 292 292 291 289 288 287 286 286 287 289 290 289 289 288 288 287 286 284 283 281 279 278 278 277 276 275 274 274 273 272 271 269 269 266 263 263 261 260 259 258
293 289 291 292 292 290 291 291 291 291 290 290 291 291 290 289 289 288 287 286 285 284 282 280 279 279 278 277 276 275 274 274 273 271 269 269 268 265 263 262 261 259 259
293 293 295 296 294 290 291 291 292 293 293 293 293 292 291 290 290 290 288 287 285 284 283 282 281 281 280 278 277 277 276 274 274 272 271 269 268 268 264 262 261 259 258
295 295 295 298 297 294 293 292 293 294 294 294 295 294 293 292 291 290 289 287 285 284 284 283 283 282 281 280 278 277 277 276 275 274 272 270 269 268 266 263 261 259 259
298 297 296 298 299 298 296 294 293 295 295 296 297 295 294 293 292 291 289 287 286 285 285 286 285 284 283 280 279 278 276 277 276 275 273 271 269 266 265 264 262 260 258
299 300 303 301 301 300 297 296 296 297 297 299 298 296 295 295 294 292 290 289 288 288 288 288 289 288 286 284 281 279 278 278 278 277 275 273 271 268 265 264 263 260 257
304 305 306 302 302 301 298 296 297 299 300 300 299 299 299 299 297 293 291 290 290 291 291 291 292 291 290 288 285 282 280 279 279 278 276 273 271 268 265 264 263 260 256
307 307 307 306 307 304 301 299 299 300 300 301 302 303 304 304 300 298 295 294 293 293 293 292 293 294 293 291 288 286 282 281 280 278 276 272 269 267 265 263 261 259 256
308 311 310 310 309 308 306 304 304 303 304 307 307 308 310 308 305 303 301 300 300 300 299 298 297 295 293 292 291 288 286 284 281 278 275 272 268 266 263 262 260 257 255
310 313 312 311 311 312 310 309 309 308 308 310 312 312 314 314 313 313 312 311 309 307 305 304 302 299 298 297 296 294 292 287 283 279 277 271 267 261 260 259 255 251 250
312 314 316 316 315 314 312 313 315 314 311 311 313 316 318 318 318 319 319 318 315 310 308 307 306 305 306 305 307 309 306 304 299 290 278 272 269 258 252 252 246 237 238
316 320 321 323 322 320 319 319 318 317 317 319 322 325 326 326 326 327 327 324 322 319 316 315 315 318 322 322 328 334 336 345 342 339 328 296 280 249 230 226 223 215 214
317 322 326 330 330 328 327 325 325 327 329 331 334 336 335 335 336 338 338 335 334 336 337 338 341 349 354 3 7 13 26 41 54 59 62 73 83 101 115 136 145 157 168
323 327 329 331 333 334 336 336 335 337 341 343 345 347 347 346 348 350 353 359 5 10 18 24 30 36 42 48 45 51 59 65 76 78 77 85 90 95 99 105 117 115 118
326 329 331 333 336 339 342 344 343 343 347 352 356 359 2 5 8 13 20 26 36 45 49 52 56 59 63 67 69 70 75 75 77 80 83 88 89 98 96 96 101 102 101
332 334 336 338 341 344 347 348 351 355 2 7 10 14 19 24 30 37 43 48 53 58 60 62 68 72 76 78 79 80 81 82 82 84 89 90 90 90 91 91 91 91 89
348 349 348 350 352 355 357 1 9 19 22 23 24 29 33 37 42 45 50 56 60 62 65 70 75 78 78 79 81 83 84 83 81 86 88 87 87 86 85 83 81 79 76
Height
5844 5843 5843 5842 5841 5841 5841 5841 5840 5840 5839 5838 5838 5837 5837 5836 5835 5834 5833 5832 5831 5831 5830 5829 5829 5828 5828 5828 5828 5827 5827 5827 5827 5827 5827 5828 5828 5829 5830 5831 5832 5833 5834
5841 5840 5840 5840 5839 5838 5837 5837 5836 5835 5834 5834 5833 5832 5831 5830 5829 5828 5827 5826 5825 5824 5823 5822 5821 5821 5821 5820 5820 5820 5820 5819 5819 5820 5820 5821 5822 5822 5823 5824 5825 5826 5827
5837 5837 5836 5836 5835 5834 5833 5832 5831 5830 5829 5828 5827 5826 5825 5824 5823 5822 5821 5820 5819 5818 5816 5815 5814 5813 5813 5813 5813 5812 5812 5812 5812 5812 5813 5813 5814 5814 5815 5816 5817 5818 5819
5834 5833 5832 5832 5831 5830 5829 5828 5827 5825 5824 5823 5821 5820 5819 5818 5817 5816 5814 5813 5812 5811 5809 5808 5807 5806 5806 5805 5805 5804 5804 5804 5804 5804 5804 5805 5806 5806 5807 5808 5809 5810 5811
5830 5829 5828 5827 5826 5825 5824 5823 5822 5820 5819 5817 5816 5815 5813 5812 5810 5809 5808 5806 5805 5803 5802 5800 5799 5798 5798 5797 5797 5796 5796 5796 5796 5796 5796 5796 5797 5797 5799 5800 5801 5802 5803
5825 5824 5823 5822 5821 5820 5818 5817 5816 5814 5813 5811 5810 5808 5807 5805 5804 5802 5801 5799 5798 5796 5794 5793 5792 5791 5790 5790 5789 5789 5788 5788 5788 5788 5788 5789 5789 5790 5790 5792 5793 5794 5795
5821 5820 5819 5818 5816 5815 5813 5812 5810 5808 5806 5805 5803 5802 5800 5799 5797 5795 5793 5792 5790 5789 5787 5786 5784 5783 5782 5782 5781 5781 5780 5780 5780 5780 5780 5781 5781 5782 5782 5783 5785 5786 5787
5817 5816 5815 5813 5811 5810 5808 5806 5804 5802 5800 5798 5797 5795 5794 5792 5790 5788 5786 5784 5782 5781 5779 5778 5777 5775 5775 5774 5773 5773 5772 5772 5772 5772 5772 5772 5773 5773 5774 5776 5777 5778 5780
5813 5812 5810 5809 5806 5804 5802 5800 5798 5796 5794 5792 5790 5788 5786 5784 5782 5780 5778 5776 5774 5773 5771 5770 5769 5767 5766 5766 5765 5765 5764 5764 5764 5764 5764 5764 5765 5765 5767 5768 5769 5771 5772
5809 5807 5806 5803 5801 5799 5797 5795 5792 5790 5787 5785 5783 5781 5779 5777 5775 5773 5771 5769 5767 5765 5763 5762 5761 5760 5759 5758 5757 5757 5756 5756 5756 5756 5756 5756 5756 5757 5758 5760 5761 5762 5764
5805 5803 5801 5798 5796 5793 5791 5789 5786 5784 5781 5778 5776 5773 5771 5769 5767 5765 5763 5761 5759 5758 5756 5755 5753 5752 5751 5750 5749 5749 5748 5748 5748 5747 5748 5748 5748 5749 5750 5751 5753 5754 5756
5800 5798 5795 5793 5790 5788 5785 5783 5780 5777 5774 5772 5769 5766 5764 5762 5760 5758 5755 5754 5752 5750 5749 5747 5746 5744 5743 5742 5742 5741 5741 5740 5740 5740 5740 5740 5741 5741 5742 5743 5745 5746 5748
5795 5792 5790 5787 5784 5782 5779 5776 5774 5771 5768 5765 5762 5759 5757 5754 5752 5750 5748 5747 5745 5743 5742 5740 5738 5737 5736 5735 5734 5734 5733 5733 5732 5732 5732 5733 5733 5734 5734 5735 5737 5738 5739
5789 5786 5784 5781 5778 5775 5772 5770 5767 5764 5762 5759 5756 5753 5750 5748 5746 5743 5741 5740 5738 5736 5735 5733 5732 5730 5729 5728 5727 5727 5726 5725 5725 5725 5725 5725 5725 5726 5727 5728 5729 5730 5731
5783 5781 5778 5775 5772 5769 5766 5763 5761 5758 5755 5752 5749 5746 5744 5741 5739 5737 5735 5733 5732 5730 5728 5727 5725 5723 5722 5721 5720 5719 5719 5719 5718 5718 5718 5718 5718 5718 5719 5720 5721 5722 5724
5778 5775 5772 5769 5766 5763 5760 5757 5755 5752 5749 5746 5743 5740 5738 5736 5733 5731 5729 5727 5726 5724 5722 5721 5719 5717 5716 5714 5713 5713 5712 5712 5712 5712 5711 5711 5711 5712 5712 5713 5715 5716 5717
5773 5770 5767 5764 5761 5758 5755 5752 5749 5746 5743 5741 5738 5735 5733 5730 5728 5725 5723 5721 5720 5718 5716 5715 5713 5712 5710 5709 5708 5707 5706 5706 5706 5705 5705 5705 5706 5706 5707 5708 5709 5710 5712
5768 5765 5762 5759 5756 5753 5750 5747 5744 5741 5739 5736 5734 5731 5728 5726 5723 5721 5719 5717 5715 5713 5711 5710 5708 5707 5706 5705 5704 5703 5702 5701 5701 5700 5700 5701 5701 5702 5702 5703 5704 5706 5707
5764 5761 5758 5755 5752 5749 5746 5743 5740 5737 5735 5733 5730 5727 5725 5722 5719 5717 5715 5713 5711 5709 5708 5706 5705 5703 5702 5701 5700 5699 5698 5697 5696 5696 5696 5696 5697 5698 5699 5700 5701 5703 5704
5760 5757 5754 5751 5748 5746 5743 5740 5737 5735 5732 5729 5727 5724 5721 5719 5717 5714 5712 5710 5708 5706 5704 5703 5702 5700 5699 5698 5697 5696 5695 5695 5694 5694 5694 5694 5695 5696 5696 5698 5699 5700 5702
5757 5754 5752 5749 5746 5743 5740 5737 5735 5732 5730 5727 5724 5722 5719 5717 5714 5712 5710 5707 5705 5704 5702 5701 5700 5699 5698 5697 5696 5695 5695 5694 5693 5693 5693 5693 5694 5695 5696 5697 5698 5699 5700
5754 5752 5749 5746 5743 5740 5738 5735 5733 5730 5728 5725 5722 5720 5717 5715 5713 5710 5708 5706 5704 5702 5701 5700 5699 5698 5698 5697 5696 5696 5695 5694 5694 5694 5694 5694 5694 5695 5696 5697 5698 5699 5700
5752 5749 5747 5744 5741 5739 5736 5733 5731 5729 5726 5724 5722 5719 5717 5714 5712 5710 5707 5705 5703 5702 5701 5700 5699 5699 5698 5698 5697 5697 5696 5696 5696 5696 5695 5695 5696 5697 5698 5698 5699 5701 5702
5750 5748 5745 5743 5740 5738 5735 5733 5730 5728 5726 5724 5721 5719 5717 5714 5712 5710 5707 5706 5704 5703 5702 5701 5701 5700 5700 5699 5699 5699 5698 5698 5698 5698 5698 5698 5699 5699 5700 5701 5701 5702 5703
5749 5747 5744 5742 5740 5737 5735 5732 5730 5728 5726 5724 5722 5720 5717 5715 5713 5711 5709 5708 5706 5705 5705 5704 5703 5703 5702 5702 5702 5701 5701 5701 5701 5701 5701 5702 5702 5702 5703 5703 5704 5705 5705
5748 5746 5744 5741 5739 5737 5735 5732 5730 5728 5727 5725 5723 5721 5719 5717 5715 5714 5712 5711 5709 5708 5708 5707 5706 5706 5706 5705 5705 5705 5705 5705 5705 5705 5705 5705 5706 5706 5707 5707 5707 5708 5708